GW4862 Weather Reports


time (UTC)temp
C
wind
direction
speed
KPH
gust
KPH
rain 1hr
cm
rain 24hr
cm
rain mn
cm
humidity
%
barometer
mb
20260903025500 25 308 0.0 0.0 0.00 0.00 0.00 77 1016.9
20260903024955 25 307 0.0 0.0 0.00 0.00 0.00 77 1017.0
20260903024454 25 307 0.0 0.0 0.00 0.00 0.00 77 1017.1
20260903023949 25 307 0.0 0.0 0.00 0.00 0.00 77 1017.0
20260903023445 26 307 0.0 0.0 0.00 0.00 0.00 76 1016.9
20260903022941 26 307 0.0 0.0 0.00 0.00 0.00 76 1017.0
20260903022440 25 308 0.0 0.0 0.00 0.00 0.00 76 1017.1
20260903021938 26 307 0.0 0.0 0.00 0.00 0.00 77 1017.1
20260903021434 26 307 0.0 0.0 0.00 0.00 0.00 76 1017.0
20260903020928 26 307 0.0 0.0 0.00 0.00 0.00 76 1017.0
20260903020424 26 307 0.0 0.0 0.00 0.00 0.00 76 1017.0
20260903015919 26 307 0.0 0.0 0.00 0.00 0.00 76 1017.0
20260903015415 26 307 0.0 0.0 0.00 0.00 0.00 76 1017.1
20260903014909 26 307 0.0 0.0 0.00 0.00 0.00 75 1017.1
20260903014403 26 307 0.0 0.0 0.00 0.00 0.00 75 1017.0
20260903013858 26 307 0.0 0.0 0.00 0.00 0.00 75 1016.8
20260903013357 26 307 0.0 0.0 0.00 0.00 0.00 75 1016.8
20260903012856 26 307 0.0 0.0 0.00 0.00 0.00 75 1016.8
20260903012350 26 308 0.0 0.0 0.00 0.00 0.00 74 1016.8
20260903011850 26 311 0.0 0.0 0.00 0.00 0.00 73 1016.7
20260903011350 26 311 0.0 0.0 0.00 0.00 0.00 73 1016.8
20260903010846 27 311 0.0 0.0 0.00 0.00 0.00 73 1016.7
20260903010341 27 311 0.0 0.0 0.00 0.00 0.00 72 1016.6
20260903005839 27 330 0.0 0.0 0.00 0.00 0.00 72 1016.7
20260903005334 27 339 0.0 0.0 0.00 0.00 0.00 71 1016.6
20260903004831 27 340 0.0 0.0 0.00 0.00 0.00 71 1016.4
20260903004326 27 340 0.0 0.0 0.00 0.00 0.00 71 1016.4
20260903003822 27 340 0.0 0.0 0.00 0.00 0.00 71 1016.4
20260903003316 27 340 0.0 0.0 0.00 0.00 0.00 71 1016.4
20260903002815 27 340 0.0 0.0 0.00 0.00 0.00 71 1016.4
20260903002315 28 340 0.0 0.0 0.00 0.00 0.00 71 1016.2
20260903001811 28 340 0.0 0.0 0.00 0.00 0.00 69 1016.5
20260903001306 28 340 0.0 0.0 0.00 0.00 0.00 69 1016.3
20260903000806 28 340 0.0 0.0 0.00 0.00 0.00 69 1016.4
20260903000303 28 340 0.0 0.0 0.00 0.00 0.00 68 1016.3
20260902235758 28 340 0.0 0.0 0.00 0.00 0.00 69 1016.2
20260902235254 29 335 0.0 0.0 0.00 0.00 0.00 67 1016.4
20260902234754 30 335 0.0 0.0 0.00 0.00 0.00 66 1016.2
20260902234248 30 334 0.0 0.0 0.00 0.00 0.00 66 1016.2
20260902233747 30 334 0.0 0.0 0.00 0.00 0.00 64 1016.4
20260902233241 30 334 0.0 0.0 0.00 0.00 0.00 63 1016.2
20260902232740 31 334 0.0 0.0 0.00 0.00 0.00 62 1016.4
20260902232235 31 334 0.0 0.0 0.00 0.00 0.00 61 1016.4
20260902231734 31 334 0.0 0.0 0.00 0.00 0.00 60 1016.5
20260902231230 31 334 0.0 0.0 0.00 0.00 0.00 59 1016.3
20260902230725 32 334 0.0 0.0 0.00 0.00 0.00 59 1016.3
20260902230224 32 330 0.0 0.0 0.00 0.00 0.00 57 1016.4
20260902225719 32 330 0.0 0.0 0.00 0.00 0.00 60 1016.5
20260902225219 32 330 0.0 0.0 0.00 0.00 0.00 58 1016.3
20260902224717 32 339 0.0 0.0 0.00 0.00 0.00 57 1016.5
20260902224213 32 329 0.0 0.0 0.00 0.00 0.00 56 1016.5
20260902223709 32 326 0.0 1.6 0.00 0.00 0.00 56 1016.4
20260902223208 32 311 1.6 1.6 0.00 0.00 0.00 55 1016.5
20260902222707 32 321 1.6 1.6 0.00 0.00 0.00 55 1016.5
20260902222206 33 299 1.6 1.6 0.00 0.00 0.00 54 1016.5
20260902221701 33 307 1.6 1.6 0.00 0.00 0.00 54 1016.5
20260902221154 33 280 1.6 1.6 0.00 0.00 0.00 55 1016.6
20260902220650 33 333 0.0 0.0 0.00 0.00 0.00 54 1016.5
20260902220145 33 351 0.0 0.0 0.00 0.00 0.00 54 1016.5
20260902215641 33 335 1.6 1.6 0.00 0.00 0.00 55 1016.4
20260902215136 33 336 0.0 1.6 0.00 0.00 0.00 54 1016.4
20260902214631 32 299 1.6 1.6 0.00 0.00 0.00 54 1016.5
20260902214131 33 324 0.0 0.0 0.00 0.00 0.00 53 1016.5
20260902213626 33 309 0.0 1.6 0.00 0.00 0.00 54 1016.6
20260902213125 33 314 0.0 1.6 0.00 0.00 0.00 53 1016.6
20260902212621 33 335 0.0 0.0 0.00 0.00 0.00 52 1016.6
20260902212117 33 311 1.6 1.6 0.00 0.00 0.00 51 1016.7
20260902211613 34 298 3.2 4.8 0.00 0.00 0.00 51 1016.6
20260902211108 34 349 1.6 1.6 0.00 0.00 0.00 50 1016.7
20260902210607 34 325 0.0 1.6 0.00 0.00 0.00 53 1016.7
20260902205601 35 311 1.6 1.6 0.00 0.00 0.00 48 1016.7
20260902205056 35 336 0.0 0.0 0.00 0.00 0.00 48 1016.8
20260902204551 35 276 1.6 1.6 0.00 0.00 0.00 49 1016.9
20260902204046 34 144 3.2 4.8 0.00 0.00 0.00 50 1016.7
20260902203541 33 320 1.6 1.6 0.00 0.00 0.00 52 1016.9
20260902203040 34 310 0.0 1.6 0.00 0.00 0.00 51 1017.0
20260902202536 35 287 1.6 3.2 0.00 0.00 0.00 48 1016.9
20260902202032 35 294 1.6 3.2 0.00 0.00 0.00 47 1017.0
20260902201527 35 193 1.6 3.2 0.00 0.00 0.00 46 1016.9
20260902201021 35 300 1.6 1.6 0.00 0.00 0.00 48 1016.9
20260902200517 36 261 3.2 3.2 0.00 0.00 0.00 49 1017.0
20260902200013 35 318 1.6 3.2 0.00 0.00 0.00 47 1017.1
20260902195508 36 302 1.6 1.6 0.00 0.00 0.00 46 1017.1
20260902195007 36 308 1.6 1.6 0.00 0.00 0.00 46 1017.2
20260902194506 35 12 0.0 1.6 0.00 0.00 0.00 48 1017.3
20260902194002 35 340 1.6 1.6 0.00 0.00 0.00 46 1017.3
20260902193457 35 292 1.6 3.2 0.00 0.00 0.00 47 1017.6
20260902192956 35 323 1.6 1.6 0.00 0.00 0.00 50 1017.5
20260902192450 35 296 3.2 4.8 0.00 0.00 0.00 50 1017.6
20260902191949 35 328 0.0 1.6 0.00 0.00 0.00 48 1017.6
20260902191444 35 330 0.0 1.6 0.00 0.00 0.00 47 1017.5
20260902190939 35 296 3.2 3.2 0.00 0.00 0.00 49 1017.5
20260902190435 35 336 3.2 4.8 0.00 0.00 0.00 47 1017.7
20260902185930 35 57 3.2 3.2 0.00 0.00 0.00 47 1017.5
20260902185426 35 122 6.4 6.4 0.00 0.00 0.00 49 1017.7
20260902184921 35 295 3.2 3.2 0.00 0.00 0.00 51 1017.9
20260902184416 35 289 3.2 4.8 0.00 0.00 0.00 49 1017.9
20260902183912 35 261 3.2 4.8 0.00 0.00 0.00 50 1017.9
20260902183408 35 297 0.0 1.6 0.00 0.00 0.00 50 1017.9
20260902182904 35 305 0.0 1.6 0.00 0.00 0.00 49 1017.9
20260902182400 35 292 1.6 3.2 0.00 0.00 0.00 48 1017.9
20260902181856 35 295 0.0 1.6 0.00 0.00 0.00 49 1017.9
20260902181351 35 297 1.6 1.6 0.00 0.00 0.00 50 1018.0
20260902180845 35 295 3.2 6.4 0.00 0.00 0.00 48 1018.2
20260902180341 35 273 3.2 3.2 0.00 0.00 0.00 49 1018.1
20260902175836 35 297 1.6 1.6 0.00 0.00 0.00 53 1018.2
20260902175331 35 291 1.6 3.2 0.00 0.00 0.00 50 1018.3
20260902174826 35 272 3.2 4.8 0.00 0.00 0.00 52 1018.3
20260902174323 34 289 1.6 1.6 0.00 0.00 0.00 50 1018.5
20260902173813 34 273 3.2 4.8 0.00 0.00 0.00 50 1018.5
20260902173313 34 305 3.2 3.2 0.00 0.00 0.00 53 1018.4
20260902172813 34 252 4.8 6.4 0.00 0.00 0.00 50 1018.3
20260902172308 35 280 3.2 4.8 0.00 0.00 0.00 50 1018.4
20260902171803 34 306 1.6 1.6 0.00 0.00 0.00 51 1018.5
20260902171257 33 283 1.6 3.2 0.00 0.00 0.00 51 1018.7
20260902170754 34 260 3.2 3.2 0.00 0.00 0.00 51 1018.6
20260902170249 33 275 0.0 1.6 0.00 0.00 0.00 54 1018.8
20260902165744 34 296 3.2 3.2 0.00 0.00 0.00 52 1018.7
20260902165244 34 299 0.0 0.0 0.00 0.00 0.00 56 1018.7
20260902164738 33 291 1.6 1.6 0.00 0.00 0.00 54 1018.7
20260902164232 33 295 1.6 1.6 0.00 0.00 0.00 54 1018.8
20260902163727 33 301 0.0 1.6 0.00 0.00 0.00 55 1019.1
20260902163221 33 298 1.6 1.6 0.00 0.00 0.00 55 1019.1
20260902162720 33 299 1.6 1.6 0.00 0.00 0.00 55 1019.0
20260902162215 34 279 0.0 0.0 0.00 0.00 0.00 57 1018.8
20260902161710 33 318 1.6 3.2 0.00 0.00 0.00 56 1019.1
20260902161206 33 312 1.6 3.2 0.00 0.00 0.00 58 1019.0
20260902160703 32 299 1.6 1.6 0.00 0.00 0.00 58 1019.1
20260902160201 33 315 1.6 3.2 0.00 0.00 0.00 58 1018.8
20260902155700 32 313 0.0 0.0 0.00 0.00 0.00 58 1019.1
20260902155200 33 298 1.6 1.6 0.00 0.00 0.00 59 1019.2
20260902154655 33 312 0.0 0.0 0.00 0.00 0.00 58 1019.5
20260902154154 32 298 1.6 1.6 0.00 0.00 0.00 62 1019.2
20260902153649 32 311 0.0 0.0 0.00 0.00 0.00 59 1019.4
20260902153149 32 311 0.0 0.0 0.00 0.00 0.00 62 1019.4
20260902152645 32 302 0.0 1.6 0.00 0.00 0.00 59 1019.5
20260902152140 32 319 0.0 0.0 0.00 0.00 0.00 58 1019.4
20260902151636 32 304 0.0 0.0 0.00 0.00 0.00 61 1019.5
20260902151136 32 303 0.0 1.6 0.00 0.00 0.00 62 1019.5
20260902150632 32 311 0.0 0.0 0.00 0.00 0.00 61 1019.5
20260902150127 31 320 0.0 0.0 0.00 0.00 0.00 60 1019.5
20260902145627 31 301 0.0 1.6 0.00 0.00 0.00 64 1019.7
20260902145126 31 282 1.6 3.2 0.00 0.00 0.00 61 1019.4
20260902144624 32 304 1.6 1.6 0.00 0.00 0.00 60 1019.4
20260902144124 31 291 1.6 1.6 0.00 0.00 0.00 61 1019.4
20260902143619 31 315 0.0 0.0 0.00 0.00 0.00 63 1019.3
20260902143114 30 302 1.6 1.6 0.00 0.00 0.00 64 1019.3
20260902142609 30 303 0.0 0.0 0.00 0.00 0.00 65 1019.3
20260902142105 30 310 0.0 0.0 0.00 0.00 0.00 66 1019.3
20260902141605 29 303 1.6 1.6 0.00 0.00 0.00 67 1019.5
20260902141100 30 302 1.6 1.6 0.00 0.00 0.00 66 1019.3
20260902140555 30 305 0.0 0.0 0.00 0.00 0.00 70 1019.2
20260902140051 30 310 0.0 1.6 0.00 0.00 0.00 66 1019.3
20260902135544 29 304 0.0 0.0 0.00 0.00 0.00 68 1019.3
20260902135039 29 309 0.0 0.0 0.00 0.00 0.00 66 1019.3
20260902134535 29 308 0.0 1.6 0.00 0.00 0.00 65 1019.3
20260902134034 29 308 0.0 0.0 0.00 0.00 0.00 68 1019.2
20260902133529 28 304 0.0 0.0 0.00 0.00 0.00 65 1019.4
20260902133024 28 302 0.0 0.0 0.00 0.00 0.00 69 1019.3
20260902132519 29 310 0.0 0.0 0.00 0.00 0.00 68 1019.3
20260902132015 29 306 0.0 0.0 0.00 0.00 0.00 67 1019.2
20260902131511 29 308 0.0 1.6 0.00 0.00 0.00 66 1019.3
20260902131011 28 308 0.0 0.0 0.00 0.00 0.00 67 1019.2
20260902130507 27 308 0.0 0.0 0.00 0.00 0.00 71 1019.4
20260902130002 27 305 0.0 1.6 0.00 0.00 0.00 71 1019.3
20260902125457 27 308 0.0 0.0 0.00 0.00 0.00 70 1019.2
20260902124953 27 308 0.0 0.0 0.00 0.00 0.00 72 1019.0
20260902124449 27 308 0.0 0.0 0.00 0.00 0.00 74 1019.1
20260902123944 27 309 0.0 0.0 0.00 0.00 0.00 74 1019.2
20260902123440 27 315 0.0 0.0 0.00 0.00 0.00 72 1019.1
20260902122938 27 312 0.0 0.0 0.00 0.00 0.00 74 1019.2
20260902122434 26 312 0.0 0.0 0.00 0.00 0.00 74 1019.0
20260902121930 26 312 0.0 0.0 0.00 0.00 0.00 76 1018.7
20260902121424 25 312 0.0 0.0 0.00 0.00 0.00 78 1018.8
20260902120919 25 311 0.0 0.0 0.00 0.00 0.00 80 1019.0
20260902120415 23 311 0.0 0.0 0.00 0.00 0.00 85 1018.8
20260902115914 22 311 0.0 0.0 0.00 0.00 0.00 90 1018.8
20260902115411 22 311 0.0 0.0 0.00 0.00 0.00 90 1018.7
20260902114908 21 311 0.0 0.0 0.00 0.00 0.00 91 1018.6
20260902114403 21 311 0.0 0.0 0.00 0.00 0.00 91 1018.7
20260902113903 21 311 0.0 0.0 0.00 0.00 0.00 91 1018.6
20260902113358 21 311 0.0 0.0 0.00 0.00 0.00 91 1018.5
20260902112858 21 312 0.0 0.0 0.00 0.00 0.00 91 1018.4
20260902112354 21 312 0.0 0.0 0.00 0.00 0.00 91 1018.4
20260902111850 21 312 0.0 0.0 0.00 0.00 0.00 91 1018.4
20260902111346 21 312 0.0 0.0 0.00 0.00 0.00 91 1018.2
20260902110841 21 312 0.0 0.0 0.00 0.00 0.00 91 1018.2
20260902110337 21 312 0.0 0.0 0.00 0.00 0.00 91 1018.4
20260902105832 21 312 0.0 0.0 0.00 0.00 0.00 91 1018.4
20260902105327 21 312 0.0 0.0 0.00 0.00 0.00 91 1018.3
20260902104821 21 312 0.0 0.0 0.00 0.00 0.00 91 1018.6
20260902104318 21 312 0.0 0.0 0.00 0.00 0.00 91 1018.5
20260902103812 21 312 0.0 0.0 0.00 0.00 0.00 91 1018.4
20260902103307 21 312 0.0 0.0 0.00 0.00 0.00 91 1018.3
20260902102802 21 312 0.0 0.0 0.00 0.00 0.00 91 1018.3
20260902102300 21 312 0.0 0.0 0.00 0.00 0.00 90 1018.3
20260902101755 21 312 0.0 0.0 0.00 0.00 0.00 90 1018.2
20260902101249 21 311 0.0 0.0 0.00 0.00 0.00 90 1018.2
20260902100748 21 311 0.0 0.0 0.00 0.00 0.00 90 1018.2
20260902100243 21 311 0.0 0.0 0.00 0.00 0.00 90 1018.2
20260902095737 21 311 0.0 0.0 0.00 0.00 0.00 90 1018.4
20260902095232 21 311 0.0 0.0 0.00 0.00 0.00 90 1018.2
20260902094727 21 311 0.0 0.0 0.00 0.00 0.00 90 1018.2
20260902094223 22 308 0.0 0.0 0.00 0.00 0.00 90 1018.3
20260902093722 22 308 0.0 0.0 0.00 0.00 0.00 89 1018.3
20260902093217 22 308 0.0 0.0 0.00 0.00 0.00 89 1018.2
20260902092712 22 308 0.0 0.0 0.00 0.00 0.00 89 1018.3
20260902092207 22 308 0.0 0.0 0.00 0.00 0.00 89 1018.1
20260902091706 22 308 0.0 0.0 0.00 0.00 0.00 89 1018.2
20260902091203 22 308 0.0 0.0 0.00 0.00 0.00 89 1018.2
20260902090659 22 308 0.0 0.0 0.00 0.00 0.00 89 1018.1
20260902090158 22 308 0.0 0.0 0.00 0.00 0.00 89 1018.2
20260902085658 22 308 0.0 0.0 0.00 0.00 0.00 89 1018.1
20260902085153 22 308 0.0 0.0 0.00 0.00 0.00 89 1018.0
20260902084649 22 308 0.0 0.0 0.00 0.00 0.00 89 1017.8
20260902084145 22 308 0.0 0.0 0.00 0.00 0.00 89 1017.9
20260902083640 22 308 0.0 0.0 0.00 0.00 0.00 89 1017.7
20260902083139 22 308 0.0 0.0 0.00 0.00 0.00 89 1017.6
20260902082635 22 308 0.0 0.0 0.00 0.00 0.00 89 1017.8
20260902082131 22 308 0.0 0.0 0.00 0.00 0.00 88 1017.6
20260902081627 22 308 0.0 0.0 0.00 0.00 0.00 88 1017.7
20260902081122 22 308 0.0 0.0 0.00 0.00 0.00 88 1017.6
20260902080617 22 308 0.0 0.0 0.00 0.00 0.00 87 1017.6
20260902080114 22 308 0.0 0.0 0.00 0.00 0.00 87 1017.7
20260902075613 22 308 0.0 0.0 0.00 0.00 0.00 87 1017.5
20260902075110 22 308 0.0 0.0 0.00 0.00 0.00 86 1017.5
20260902074605 22 308 0.0 0.0 0.00 0.00 0.00 86 1017.6
20260902074100 22 308 0.0 0.0 0.00 0.00 0.00 86 1017.6
20260902073555 22 308 0.0 0.0 0.00 0.00 0.00 86 1017.4
20260902073052 22 308 0.0 0.0 0.00 0.00 0.00 85 1017.4
20260902072547 22 308 0.0 0.0 0.00 0.00 0.00 85 1017.5
20260902072044 22 308 0.0 0.0 0.00 0.00 0.00 85 1017.5
20260902071543 22 308 0.0 0.0 0.00 0.00 0.00 85 1017.5
20260902071039 22 308 0.0 0.0 0.00 0.00 0.00 85 1017.5
20260902070534 22 308 0.0 0.0 0.00 0.00 0.00 86 1017.6
20260902070030 22 308 0.0 0.0 0.00 0.00 0.00 85 1017.5
20260902065529 23 308 0.0 0.0 0.00 0.00 0.00 85 1017.3
20260902065024 23 308 0.0 0.0 0.00 0.00 0.00 85 1017.6
20260902064520 23 308 0.0 0.0 0.00 0.00 0.00 85 1017.5
20260902064016 23 308 0.0 0.0 0.00 0.00 0.00 85 1017.5
20260902063515 23 308 0.0 0.0 0.00 0.00 0.00 84 1017.4
20260902063010 23 308 0.0 0.0 0.00 0.00 0.00 85 1017.4
20260902062508 23 308 0.0 0.0 0.00 0.00 0.00 85 1017.5
20260902062005 23 308 0.0 0.0 0.00 0.00 0.00 85 1017.4
20260902061459 23 308 0.0 0.0 0.00 0.00 0.00 84 1017.6
20260902060955 23 308 0.0 0.0 0.00 0.00 0.00 85 1017.4
20260902060451 23 308 0.0 0.0 0.00 0.00 0.00 84 1017.6
20260902055947 23 308 0.0 0.0 0.00 0.00 0.00 84 1017.4
20260902055443 23 308 0.0 0.0 0.00 0.00 0.00 84 1017.6
20260902054938 23 308 0.0 0.0 0.00 0.00 0.00 83 1017.6
20260902054433 23 308 0.0 0.0 0.00 0.00 0.00 83 1017.6
20260902053928 23 308 0.0 0.0 0.00 0.00 0.00 83 1017.6
20260902053424 23 308 0.0 0.0 0.00 0.00 0.00 83 1017.6
20260902052922 23 308 0.0 0.0 0.00 0.00 0.00 83 1017.6
20260902052418 23 308 0.0 0.0 0.00 0.00 0.00 82 1017.5
20260902051913 23 308 0.0 0.0 0.00 0.00 0.00 82 1017.8
20260902051413 23 308 0.0 0.0 0.00 0.00 0.00 82 1017.6
20260902050912 23 308 0.0 0.0 0.00 0.00 0.00 82 1017.5
20260902050412 23 308 0.0 0.0 0.00 0.00 0.00 82 1017.6
20260902045907 23 308 0.0 0.0 0.00 0.00 0.00 82 1017.6
20260902045403 23 308 0.0 0.0 0.00 0.00 0.00 82 1017.6
20260902044900 23 308 0.0 0.0 0.00 0.00 0.00 82 1017.6
20260902044400 23 308 0.0 0.0 0.00 0.00 0.00 82 1017.5
20260902043900 23 308 0.0 0.0 0.00 0.00 0.00 82 1017.3
20260902043355 23 308 0.0 0.0 0.00 0.00 0.00 82 1017.5
20260902042850 23 308 0.0 0.0 0.00 0.00 0.00 81 1017.7
20260902042350 24 308 0.0 0.0 0.00 0.00 0.00 82 1017.6
20260902041845 23 308 0.0 0.0 0.00 0.00 0.00 82 1017.6
20260902041339 23 308 0.0 0.0 0.00 0.00 0.00 82 1017.6
20260902040838 23 308 0.0 0.0 0.00 0.00 0.00 82 1017.7
20260902040334 24 308 0.0 0.0 0.00 0.00 0.00 82 1017.7
20260902035832 24 308 0.0 0.0 0.00 0.00 0.00 82 1017.7
20260902035328 24 308 0.0 0.0 0.00 0.00 0.00 82 1017.7
20260902034827 24 308 0.0 0.0 0.00 0.00 0.00 82 1017.7
20260902034322 24 308 0.0 0.0 0.00 0.00 0.00 81 1017.8
20260902033820 24 308 0.0 0.0 0.00 0.00 0.00 81 1017.7
20260902033315 24 308 0.0 0.0 0.00 0.00 0.00 81 1017.6
20260902032814 24 308 0.0 0.0 0.00 0.00 0.00 81 1017.6
20260902032309 24 308 0.0 0.0 0.00 0.00 0.00 81 1017.5
20260902031809 25 308 0.0 0.0 0.00 0.00 0.00 81 1017.7
20260902031305 25 308 0.0 0.0 0.00 0.00 0.00 81 1017.7
20260902030800 25 308 0.0 0.0 0.00 0.00 0.00 80 1017.7
20260902030255 25 308 0.0 0.0 0.00 0.00 0.00 80 1017.7